• In Italy
  • List of Countries
  • For 7 days
  • Water Temperature
  • Satellite Maps
  • Weather Map
  • Weather Widgets
  • user-avatar
    Login

    Hourly Weather Chhunchhon

    Today, 18 September, Tuesday

    Time Temperature Precipitation Wind Pressure Humidity
    00:00 +15°C° 0 mm 0 mps 749 mmHg 75%
    01:00 +15°C° 0 mm 0 mps 749 mmHg 73%
    02:00 +16°C° 0 mm 0 mps 749 mmHg 72%
    03:00 +16°C° 0 mm 0 mps 749 mmHg 72%
    04:00 +15°C° 0 mm 0 mps 749 mmHg 72%
    05:00 +15°C° 0 mm 0 mps 749 mmHg 72%
    06:00 +15°C° 0 mm 0 mps 749 mmHg 73%
    07:00 +17°C° 0 mm 0 mps 749 mmHg 68%
    08:00 +19°C° 0 mm 0 mps 749 mmHg 63%
    09:00 +21°C° 0 mm 0 mps 749 mmHg 60%
    10:00 +24°C° 0 mm 1 mps 749 mmHg 55%
    11:00 +26°C° 0 mm 1 mps 749 mmHg 50%
    12:00 +27°C° 0 mm 1 mps 749 mmHg 45%
    13:00 +27°C° 0 mm 1 mps 749 mmHg 44%
    14:00 +27°C° 0 mm 1 mps 748 mmHg 43%
    15:00 +27°C° 0 mm 1 mps 748 mmHg 43%
    16:00 +26°C° 0 mm 1 mps 748 mmHg 50%
    17:00 +24°C° 0 mm 1 mps 748 mmHg 57%
    18:00 +23°C° 0 mm 1 mps 748 mmHg 65%
    19:00 +22°C° 0 mm 1 mps 748 mmHg 68%
    20:00 +20°C° 0 mm 1 mps 748 mmHg 72%
    21:00 +19°C° 0 mm 1 mps 748 mmHg 77%
    22:00 +19°C° 0 mm 1 mps 748 mmHg 78%
    23:00 +17°C° 0 mm 0 mps 748 mmHg 79%

    Tomorrow, 19 September, Wednesday

    Time Temperature Precipitation Wind Pressure Humidity
    00:00 +17°C° 0 mm 0 mps 748 mmHg 80%
    01:00 +16°C° 0 mm 0 mps 748 mmHg 82%
    02:00 +16°C° 0 mm 0 mps 748 mmHg 84%
    03:00 +15°C° 0 mm 0 mps 747 mmHg 86%
    04:00 +15°C° 0 mm 0 mps 747 mmHg 86%
    05:00 +15°C° 0 mm 0 mps 747 mmHg 87%
    06:00 +14°C° 0 mm 0 mps 747 mmHg 87%
    07:00 +17°C° 0 mm 0 mps 748 mmHg 79%
    08:00 +19°C° 0 mm 0 mps 748 mmHg 72%
    09:00 +21°C° 0 mm 0 mps 748 mmHg 64%
    10:00 +22°C° 0 mm 0 mps 748 mmHg 60%
    11:00 +23°C° 0 mm 0 mps 747 mmHg 56%
    12:00 +26°C° 0 mm 1 mps 747 mmHg 52%
    13:00 +23°C° 0 mm 0 mps 747 mmHg 55%
    14:00 +23°C° 0 mm 0 mps 747 mmHg 59%
    15:00 +22°C° 0 mm 0 mps 746 mmHg 62%
    16:00 +21°C° 0 mm 0 mps 746 mmHg 65%
    17:00 +20°C° 0 mm 0 mps 746 mmHg 68%
    18:00 +20°C° 0 mm 0 mps 746 mmHg 71%
    19:00 +19°C° 0.1 mm 0 mps 746 mmHg 71%
    20:00 +19°C° 0.1 mm 0 mps 746 mmHg 72%
    21:00 +18°C° 0.1 mm 0 mps 746 mmHg 73%
    22:00 +18°C° 0.1 mm 0 mps 746 mmHg 75%
    23:00 +18°C° 0.1 mm 0 mps 746 mmHg 77%

    Day after tomorrow, 20 September, Thursday

    Time Temperature Precipitation Wind Pressure Humidity
    00:00 +19°C° 0.1 mm 1 mps 746 mmHg 79%
    01:00 +19°C° 0.1 mm 1 mps 746 mmHg 81%
    02:00 +19°C° 0.1 mm 1 mps 746 mmHg 82%
    03:00 +19°C° 0.1 mm 1 mps 745 mmHg 84%
    04:00 +19°C° 0.2 mm 1 mps 745 mmHg 85%
    05:00 +19°C° 0.2 mm 1 mps 745 mmHg 86%
    06:00 +19°C° 0.2 mm 1 mps 745 mmHg 87%
    07:00 +19°C° 1.3 mm 1 mps 745 mmHg 89%
    08:00 +19°C° 1.3 mm 1 mps 745 mmHg 91%
    09:00 +19°C° 1.3 mm 1 mps 746 mmHg 93%
    10:00 +19°C° 1.4 mm 1 mps 746 mmHg 94%
    11:00 +19°C° 1.4 mm 1 mps 746 mmHg 94%
    12:00 +20°C° 1.4 mm 1 mps 745 mmHg 95%
    13:00 +20°C° 0.9 mm 1 mps 745 mmHg 95%
    14:00 +20°C° 0.9 mm 1 mps 745 mmHg 94%
    15:00 +20°C° 0.9 mm 1 mps 744 mmHg 94%
    16:00 +19°C° 0.3 mm 2 mps 744 mmHg 94%
    17:00 +19°C° 0.3 mm 2 mps 744 mmHg 94%
    18:00 +19°C° 0.3 mm 2 mps 744 mmHg 95%
    19:00 +19°C° 0.1 mm 2 mps 745 mmHg 95%
    20:00 +20°C° 0.1 mm 1 mps 745 mmHg 95%
    21:00 +20°C° 0.1 mm 1 mps 745 mmHg 95%
    22:00 +20°C° 0.3 mm 1 mps 745 mmHg 95%
    23:00 +20°C° 0.3 mm 1 mps 745 mmHg 95%

    21 September, Friday

    Time Temperature Precipitation Wind Pressure Humidity
    00:00 +20°C° 0.3 mm 1 mps 745 mmHg 96%
    01:00 +20°C° 0.2 mm 1 mps 744 mmHg 96%
    02:00 +20°C° 0.2 mm 1 mps 744 mmHg 96%
    03:00 +20°C° 0.2 mm 1 mps 743 mmHg 96%
    04:00 +20°C° 1.2 mm 1 mps 743 mmHg 96%
    05:00 +20°C° 1.2 mm 1 mps 743 mmHg 96%
    06:00 +20°C° 1.2 mm 1 mps 743 mmHg 96%
    07:00 +20°C° 3.9 mm 1 mps 743 mmHg 96%
    08:00 +20°C° 3.9 mm 1 mps 743 mmHg 97%
    09:00 +20°C° 3.9 mm 1 mps 743 mmHg 97%
    10:00 +20°C° 3.7 mm 1 mps 742 mmHg 97%
    11:00 +21°C° 3.7 mm 1 mps 742 mmHg 96%
    12:00 +21°C° 3.7 mm 1 mps 742 mmHg 96%
    13:00 +21°C° 1 mm 1 mps 742 mmHg 95%
    14:00 +22°C° 1 mm 1 mps 742 mmHg 94%
    15:00 +22°C° 1 mm 1 mps 742 mmHg 93%
    16:00 +22°C° 0.1 mm 1 mps 742 mmHg 93%
    17:00 +20°C° 0.1 mm 0 mps 742 mmHg 93%
    18:00 +20°C° 0.1 mm 0 mps 742 mmHg 92%
    19:00 +21°C° 0 mm 1 mps 742 mmHg 94%
    20:00 +21°C° 0 mm 1 mps 743 mmHg 95%
    21:00 +20°C° 0 mm 1 mps 743 mmHg 96%
    22:00 +19°C° 0.3 mm 2 mps 743 mmHg 94%
    23:00 +19°C° 0.3 mm 2 mps 743 mmHg 92%

    22 September, Saturday

    Time Temperature Precipitation Wind Pressure Humidity
    00:00 +18°C° 0.3 mm 3 mps 743 mmHg 90%
    01:00 +17°C° 0 mm 2 mps 743 mmHg 87%
    02:00 +15°C° 0 mm 2 mps 743 mmHg 84%
    03:00 +13°C° 0 mm 1 mps 743 mmHg 82%
    04:00 +13°C° 0 mm 1 mps 743 mmHg 81%
    05:00 +13°C° 0 mm 1 mps 744 mmHg 81%
    06:00 +12°C° 0 mm 2 mps 744 mmHg 81%
    07:00 +15°C° 0 mm 2 mps 744 mmHg 76%
    08:00 +17°C° 0 mm 2 mps 744 mmHg 72%
    09:00 +19°C° 0 mm 3 mps 744 mmHg 67%
    10:00 +20°C° 0 mm 4 mps 745 mmHg 60%
    11:00 +22°C° 0 mm 5 mps 745 mmHg 53%
    12:00 +24°C° 0 mm 6 mps 745 mmHg 47%
    13:00 +23°C° 0 mm 6 mps 744 mmHg 49%
    14:00 +23°C° 0 mm 6 mps 744 mmHg 52%
    15:00 +23°C° 0 mm 6 mps 744 mmHg 55%
    16:00 +22°C° 0 mm 5 mps 744 mmHg 59%
    17:00 +21°C° 0 mm 4 mps 744 mmHg 62%
    18:00 +20°C° 0 mm 3 mps 744 mmHg 66%
    19:00 +19°C° 0 mm 3 mps 744 mmHg 69%
    20:00 +18°C° 0 mm 3 mps 745 mmHg 72%
    21:00 +17°C° 0 mm 2 mps 745 mmHg 75%
    22:00 +17°C° 0.1 mm 2 mps 745 mmHg 78%
    23:00 +16°C° 0.1 mm 2 mps 745 mmHg 80%

    23 September, Sunday

    Time Temperature Precipitation Wind Pressure Humidity
    00:00 +16°C° 0.1 mm 2 mps 745 mmHg 83%
    01:00 +16°C° 0 mm 2 mps 744 mmHg 83%
    02:00 +16°C° 0 mm 2 mps 744 mmHg 83%
    03:00 +16°C° 0 mm 2 mps 744 mmHg 84%
    04:00 +16°C° 0 mm 2 mps 744 mmHg 84%
    05:00 +15°C° 0 mm 2 mps 744 mmHg 84%
    06:00 +15°C° 0 mm 2 mps 744 mmHg 84%
    07:00 +16°C° 0.1 mm 3 mps 744 mmHg 80%
    08:00 +17°C° 0.1 mm 3 mps 744 mmHg 76%
    09:00 +19°C° 0.1 mm 4 mps 745 mmHg 72%
    10:00 +19°C° 0.2 mm 5 mps 744 mmHg 70%
    11:00 +20°C° 0.2 mm 5 mps 744 mmHg 67%
    12:00 +21°C° 0.2 mm 6 mps 744 mmHg 65%
    13:00 +21°C° 0.1 mm 6 mps 744 mmHg 62%
    14:00 +21°C° 0.1 mm 6 mps 744 mmHg 60%
    15:00 +21°C° 0.1 mm 6 mps 744 mmHg 57%
    16:00 +20°C° 0 mm 5 mps 744 mmHg 61%
    17:00 +19°C° 0 mm 4 mps 744 mmHg 65%
    18:00 +17°C° 0 mm 3 mps 745 mmHg 69%
    19:00 +16°C° 0 mm 3 mps 745 mmHg 74%
    20:00 +14°C° 0 mm 2 mps 746 mmHg 79%
    21:00 +13°C° 0 mm 1 mps 746 mmHg 83%
    22:00 +12°C° 0 mm 1 mps 746 mmHg 85%
    23:00 +12°C° 0 mm 1 mps 746 mmHg 86%
    Show more